Time,TemperatureF,DewpointF,PressureIn,WindDirection,WindDirectionDegrees,WindSpeedMPH,WindSpeedGustMPH,Humidity,HourlyPrecipIn,Conditions,Clouds,dailyrainin,SolarRadiationWatts/m^2,SoftwareType,DateUTC
2013-08-13 00:01:00,52.0,49.0,-100.00,WNW,296,1.0,7.0,89,0.00,,,0.01,0.000000,,2013-08-13 07:01:00,
2013-08-13 00:42:00,52.0,49.0,-100.00,WNW,292,2.0,5.0,89,0.00,,,0.01,0.000000,,2013-08-13 07:42:00,
2013-08-13 00:52:00,52.0,49.0,-100.00,WNW,292,2.0,5.0,89,0.00,,,0.01,0.000000,,2013-08-13 07:52:00,
2013-08-13 01:01:00,52.0,49.0,-100.00,WNW,292,2.0,5.0,89,0.00,,,0.01,0.000000,,2013-08-13 08:01:00,
2013-08-13 01:42:00,52.0,49.0,-100.00,NW,305,2.0,4.0,88,0.00,,,0.01,0.000000,,2013-08-13 08:42:00,
2013-08-13 01:52:00,52.0,49.0,-100.00,NW,305,2.0,4.0,88,0.00,,,0.01,0.000000,,2013-08-13 08:52:00,
2013-08-13 02:01:00,52.0,49.0,-100.00,NW,305,2.0,4.0,88,0.00,,,0.01,0.000000,,2013-08-13 09:01:00,
2013-08-13 02:43:00,53.0,48.0,-100.00,NW,311,2.0,5.0,83,0.00,,,0.01,0.000000,,2013-08-13 09:43:00,
2013-08-13 02:53:00,53.0,48.0,-100.00,NW,311,2.0,5.0,83,0.00,,,0.01,0.000000,,2013-08-13 09:53:00,
2013-08-13 03:03:00,53.0,48.0,-100.00,NW,311,2.0,5.0,83,0.00,,,0.01,0.000000,,2013-08-13 10:03:00,
2013-08-13 03:42:00,53.0,48.0,-100.00,WNW,285,2.0,4.0,83,0.00,,,0.01,0.000000,,2013-08-13 10:42:00,
2013-08-13 03:52:00,53.0,48.0,-100.00,WNW,285,2.0,4.0,83,0.00,,,0.01,0.000000,,2013-08-13 10:52:00,
2013-08-13 04:02:00,53.0,48.0,-100.00,WNW,285,2.0,4.0,83,0.00,,,0.01,0.000000,,2013-08-13 11:02:00,
2013-08-13 04:42:00,54.0,47.0,-100.00,East,101,2.0,4.0,77,0.00,,,0.01,0.000000,,2013-08-13 11:42:00,
2013-08-13 04:52:00,54.0,47.0,-100.00,East,101,2.0,4.0,77,0.00,,,0.01,0.000000,,2013-08-13 11:52:00,
2013-08-13 05:01:00,54.0,47.0,-100.00,East,101,2.0,4.0,77,0.00,,,0.01,0.000000,,2013-08-13 12:01:00,
2013-08-13 05:42:00,50.0,48.0,-100.00,South,172,5.0,6.0,92,0.00,,,0.01,0.000000,,2013-08-13 12:42:00,
2013-08-13 05:52:00,50.0,48.0,-100.00,South,172,5.0,6.0,92,0.00,,,0.01,0.000000,,2013-08-13 12:52:00,
2013-08-13 06:01:00,50.0,48.0,-100.00,South,172,5.0,6.0,92,0.00,,,0.01,0.000000,,2013-08-13 13:01:00,
2013-08-13 06:42:00,50.0,48.0,-100.00,South,181,7.0,8.0,94,0.00,,,0.01,0.000000,,2013-08-13 13:42:00,
2013-08-13 06:52:00,50.0,48.0,-100.00,South,181,7.0,8.0,94,0.00,,,0.01,0.000000,,2013-08-13 13:52:00,
2013-08-13 07:02:00,50.0,48.0,-100.00,South,181,7.0,8.0,94,0.00,,,0.01,0.000000,,2013-08-13 14:02:00,
2013-08-13 07:42:00,53.0,50.0,-100.00,South,180,8.0,9.0,89,0.00,,,0.01,30.000000,,2013-08-13 14:42:00,
2013-08-13 07:52:00,53.0,50.0,-100.00,South,180,8.0,9.0,89,0.00,,,0.01,30.000000,,2013-08-13 14:52:00,
2013-08-13 08:02:00,53.0,50.0,-100.00,South,180,8.0,9.0,89,0.00,,,0.01,30.000000,,2013-08-13 15:02:00,
2013-08-13 08:44:00,57.0,51.0,-100.00,South,180,8.0,10.0,81,0.00,,,0.01,190.000000,,2013-08-13 15:44:00,
2013-08-13 10:46:00,-999.0,-99.9,-100.00,South,180,6.0,9.0,-999,-99.99,,,0.00,583.000000,,2013-08-13 17:46:00,
2013-08-13 10:56:00,71.0,56.0,-100.00,South,180,6.0,9.0,59,-99.99,,,0.00,583.000000,,2013-08-13 17:56:00,
2013-08-13 11:05:00,71.0,56.0,-100.00,South,180,6.0,9.0,59,-99.99,,,0.00,583.000000,,2013-08-13 18:05:00,
2013-08-13 11:56:00,76.0,58.0,-100.00,South,171,4.0,7.0,53,0.00,,,0.00,759.000000,,2013-08-13 18:56:00,
2013-08-13 12:04:00,76.0,58.0,-100.00,South,171,4.0,7.0,53,0.00,,,0.00,759.000000,,2013-08-13 19:04:00,
2013-08-13 12:44:00,79.0,58.0,-100.00,SSE,150,3.0,6.0,48,0.00,,,0.00,911.000000,,2013-08-13 19:44:00,
2013-08-13 12:55:00,79.0,58.0,-100.00,SSE,150,3.0,6.0,48,0.00,,,0.00,911.000000,,2013-08-13 19:55:00,
2013-08-13 13:04:00,79.0,58.0,-100.00,SSE,150,3.0,6.0,48,0.00,,,0.00,911.000000,,2013-08-13 20:04:00,
2013-08-13 13:45:00,80.0,57.0,-100.00,NE,39,2.0,5.0,46,0.00,,,0.00,950.000000,,2013-08-13 20:45:00,
2013-08-13 13:53:00,80.0,57.0,-100.00,NE,39,2.0,5.0,46,0.00,,,0.00,950.000000,,2013-08-13 20:53:00,
2013-08-13 14:01:00,80.0,57.0,-100.00,NE,39,2.0,5.0,46,0.00,,,0.00,950.000000,,2013-08-13 21:01:00,
2013-08-13 14:46:00,80.0,60.0,-100.00,NNW,347,3.0,6.0,50,0.00,,,0.00,942.000000,,2013-08-13 21:46:00,
2013-08-13 14:54:00,80.0,60.0,-100.00,NNW,347,3.0,6.0,50,0.00,,,0.00,942.000000,,2013-08-13 21:54:00,
2013-08-13 15:03:00,80.0,60.0,-100.00,NNW,347,3.0,6.0,50,0.00,,,0.00,942.000000,,2013-08-13 22:03:00,
2013-08-13 15:50:00,77.0,59.0,-100.00,North,355,4.0,10.0,53,0.00,,,0.00,842.000000,,2013-08-13 22:50:00,
2013-08-13 15:56:00,77.0,59.0,-100.00,North,355,4.0,10.0,53,0.00,,,0.00,842.000000,,2013-08-13 22:56:00,
2013-08-13 16:03:00,77.0,59.0,-100.00,North,355,4.0,10.0,53,0.00,,,0.00,842.000000,,2013-08-13 23:03:00,
2013-08-13 16:47:00,77.0,57.0,-100.00,North,3,4.0,11.0,50,0.00,,,0.00,428.000000,,2013-08-13 23:47:00,
2013-08-13 16:57:00,77.0,57.0,-100.00,North,3,4.0,11.0,50,0.00,,,0.00,428.000000,,2013-08-13 23:57:00,
2013-08-13 17:03:00,77.0,57.0,-100.00,North,3,4.0,11.0,50,0.00,,,0.00,428.000000,,2013-08-14 00:03:00,
2013-08-13 17:42:00,74.0,55.0,-100.00,NNW,335,4.0,10.0,52,0.00,,,0.00,545.000000,,2013-08-14 00:42:00,
2013-08-13 17:52:00,74.0,55.0,-100.00,NNW,335,4.0,10.0,52,0.00,,,0.00,545.000000,,2013-08-14 00:52:00,
2013-08-13 18:01:00,74.0,55.0,-100.00,NNW,335,4.0,10.0,52,0.00,,,0.00,545.000000,,2013-08-14 01:01:00,
2013-08-13 18:42:00,69.0,55.0,-100.00,NNW,347,3.0,10.0,60,0.00,,,0.00,479.000000,,2013-08-14 01:42:00,
2013-08-13 18:52:00,69.0,55.0,-100.00,NNW,347,3.0,10.0,60,0.00,,,0.00,479.000000,,2013-08-14 01:52:00,
2013-08-13 19:02:00,69.0,55.0,-100.00,NNW,347,3.0,10.0,60,0.00,,,0.00,479.000000,,2013-08-14 02:02:00,
2013-08-13 19:42:00,67.0,54.0,-100.00,NNW,327,4.0,7.0,62,0.00,,,0.00,221.000000,,2013-08-14 02:42:00,
2013-08-13 19:52:00,67.0,54.0,-100.00,NNW,327,4.0,7.0,62,0.00,,,0.00,221.000000,,2013-08-14 02:52:00,
2013-08-13 20:01:00,67.0,54.0,-100.00,NNW,327,4.0,7.0,62,0.00,,,0.00,221.000000,,2013-08-14 03:01:00,
2013-08-13 20:43:00,62.0,53.0,-100.00,NW,312,4.0,9.0,73,0.00,,,0.00,47.000000,,2013-08-14 03:43:00,
2013-08-13 20:53:00,62.0,53.0,-100.00,NW,312,4.0,9.0,73,0.00,,,0.00,47.000000,,2013-08-14 03:53:00,
2013-08-13 21:03:00,62.0,53.0,-100.00,NW,312,4.0,9.0,73,0.00,,,0.00,47.000000,,2013-08-14 04:03:00,
2013-08-13 21:42:00,60.0,52.0,-100.00,WNW,300,4.0,6.0,75,0.00,,,0.00,1.000000,,2013-08-14 04:42:00,
2013-08-13 21:52:00,60.0,52.0,-100.00,WNW,300,4.0,6.0,75,0.00,,,0.00,1.000000,,2013-08-14 04:52:00,
2013-08-13 22:02:00,60.0,52.0,-100.00,WNW,300,4.0,6.0,75,0.00,,,0.00,1.000000,,2013-08-14 05:02:00,
2013-08-13 22:42:00,60.0,51.0,-100.00,WNW,297,2.0,5.0,73,0.00,,,0.00,0.000000,,2013-08-14 05:42:00,
2013-08-13 22:52:00,60.0,51.0,-100.00,WNW,297,2.0,5.0,73,0.00,,,0.00,0.000000,,2013-08-14 05:52:00,
2013-08-13 23:01:00,60.0,51.0,-100.00,WNW,297,2.0,5.0,73,0.00,,,0.00,0.000000,,2013-08-14 06:01:00,
2013-08-13 23:42:00,57.0,52.0,-100.00,NNW,348,2.0,4.0,84,0.00,,,0.00,0.000000,,2013-08-14 06:42:00,
2013-08-13 23:52:00,57.0,52.0,-100.00,NNW,348,2.0,4.0,84,0.00,,,0.00,0.000000,,2013-08-14 06:52:00,